Regional Weather Roundup
Issued by NWS

Home | Current Version | Previous Version | Text Only | Print | Product List | Glossary Off
Versions: 1 2 3 4 5 6 7 8 9 10 11 12 13 14 15 16 17 18 19 20 21 22 23 24 25 26 27 28 29 30 31 32 33 34 35 36 37 38 39 40 41 42 43 44 45 46 47 48 49 50

000
ASUS43 KLSX 192007
RWRMO

WEATHER SUMMARY FOR MISSOURI
NATIONAL WEATHER SERVICE SPRINGFIELD MO
300 PM CDT SUN OCT 19 2014

NOTE: "FAIR" INDICATES FEW OR NO CLOUDS BELOW 12,000 FEET WITH NO
       SIGNIFICANT WEATHER AND/OR OBSTRUCTIONS TO VISIBILITY.
       CURRENT SKY AND/OR WEATHER CONDITIONS ARE NOT AVAILABLE FOR
       CHILLICOTHE AND FARMINGTON.

MOZ001>031-035>038-043-044-053-054-192100-
...NORTHERN AND WESTERN MISSOURI...

CITY           SKY/WX    TMP DP  RH WIND       PRES   REMARKS
KANSAS CTY INT MOSUNNY   68  48  48 S16       30.05F
KANSAS C DTWN  SUNNY     69  48  47 S12       30.05F
LEE`S SUMMIT   SUNNY     67  47  48 SW8       30.07F
ST JOSEPH      MOSUNNY   67  46  47 S12       30.03F
CHILLICOTHE      N/A     65  45  48 S10       30.07F
KIRKSVILLE     MOSUNNY   63  43  48 SW12G18   30.07F

$$
MOZ066>068-077>081-088>096-101>105-192100-
...SOUTHWEST MISSOURI...

CITY           SKY/WX    TMP DP  RH WIND       PRES   REMARKS
SPRINGFIELD    PTSUNNY   64  49  57 SW10      30.11F
JOPLIN         MOSUNNY   66  51  58 SW13      30.11F

$$
MOZ032>034-039>042-045>050-055>058-069>072-192100-
...CENTRAL MISSOURI...

CITY           SKY/WX    TMP DP  RH WIND       PRES   REMARKS
COLUMBIA       SUNNY     64  45  49 SW9       30.10F
JEFFERSON CITY SUNNY     66  41  40 VRB5      30.10F
ROLLA          SUNNY     62  43  49 S8        30.10F
SEDALIA        SUNNY     67  44  43 S10       30.09F
WHITEMAN AFB   SUNNY     67  45  46 SW12      30.07F
OSAGE BEACH    SUNNY     66  43  42 S6        30.10F

$$
MOZ051-052-059>065-192100-
...EAST CENTRAL MISSOURI...

CITY           SKY/WX    TMP DP  RH WIND       PRES   REMARKS
ST LOUIS INTL  PTSUNNY   63  45  51 W5        30.13F
SPIRIT OF STL  MOSUNNY   63  43  48 W9        30.12F
ST CHARLES     PTSUNNY   61  44  53 SW8       30.12F

$$
MOZ072>076-082>087-097>100-106>115-192100-
...SOUTH CENTRAL AND SOUTHEAST MISSOURI...

CITY           SKY/WX    TMP DP  RH WIND       PRES   REMARKS
CAPE GIRARDEAU SUNNY    N/A N/A N/A CALM      30.15F
FARMINGTON     PTSUNNY   63  45  51 S6        30.15F
POPLAR BLUFF   MOSUNNY   64  43  46 CALM      30.15F
WEST PLAINS    PTSUNNY   61  43  51 S6        30.15F HAZE

$$


USA.gov is the U.S. government's official web portal to all federal, state and local government web resources and services.